SCP
0 0 0 0 -0 -0 -0 -0 -0 -0 -0 0 -0 0 0 0 0 0 0 -0 -0 -0 -0 -0 0 0 0 0 0 0 0 -0 -0 -0 -0 -0 -0 -0 -0 -0 -0 -0 -0 -0 -0 -0 -0 -0 -0
0 0 0 0 -0 -0 -0 -0 -0 -0 -0 -0 -0 0 0 0 0 0 0 -0 -0 0 -0 -0 0 0 -0 0 0 0 0 -0 -0 -0 -0 -0 -0 -0 -0 -0 -0 -0 -0 -0 -0 -0 -0 -0 -0
-0 0 0 0 -0 -0 -0 -0 -0 -0 -0 0 0 0 0 0 0 0 -0 -0 0 0 0 0 -0 -0 -0 0 0 0 0 -0 -0 -0 -0 -0 -0 -0 -0 -0 -0 -0 -0 -0 -0 -0 -0 -0 -0
0 0 0 -0 -0 -0 -0 -0 0 0 0 0 0 0 0 0 0 0 0 -0 0 -0 -0 -0 0 0 0 0 -0 -0 -0 0 0 -0 -0 -0 -0 -0 -0 -0 -0 -0 -0 -0 -0 -0 -0 -0 -0
0 0 -0 -0 -0 0 0 0 0 0 0 0 0 0 0 0 0 0 0 -0 -0 0 -0 -0 -0 0 0 -0 0 0 -0 -0 -0 -0 -0 -0 -0 -0 -0 -0 -0 -0 -0 -0 0 -0 -0 -0 0
0 0 -0 -0 0 0 0 0 0 0 0 0 0 0 0 0 0 0 0 0 -0 -0 0 -0 0 0 0 0 0 0 0 -0 -0 -0 -0 -0 -0 -0 -0 -0 -0 0 -0 -0 -0 -0 -0 0 0
0 0 0 0 0 0 0 0 0 0 0 0 0 0 0 0 -0 0 -0 -0 -0 -0 -0 -0 -0 -0 -0 -0 -0 -0 -0 -0 -0 -0 -0 -0 -0 -0 -0 -0 -0 -0 -0 -0 -0 0 0 0 0
0 0 0 0 -0 0 0 0 0 0 0 0 0 0 -0 -0 -0 -0 -0 0 0 -0 -0 -0 -0 -0 -0 -0 -0 -0 -0 -0 -0 -0 -0 -0 -0 -0 -0 -0 0 0 0 -0 -0 0 0 0 0
0 0 0 0 0 0 0 0 0 0 0 0 0 0 0 -0 -0 -0 -0 -0 0 0 0 0 0 0 0 0 -0 -0 -0 -0 -0 -0 -0 -0 -0 -0 -0 0 0 0 0 -0 0 0 0 0 0
0 0 0 0 0 0 -0 0 -0 0 0 0 0 0 0 -0 -0 -0 -0 -0 -0 -0 -0 0 0 -0 -0 0 -0 -0 -0 -0 -0 -0 -0 -0 -0 0 0 0 0 0 0 0 0 0 0 0 0
0 0 0 0 0 0 0 0 0 0 0 0 0 -0 -0 -0 -0 -0 -0 -0 -0 -0 -0 -0 -0 -0 -0 -0 -0 -0 -0 -0 -0 -0 -0 -0 0 0 0 0 0 0 0 0 0 0 0 0 0
0 0 0 0 0 0 0 0 0 0 0 0 0 -0 -0 -0 -0 -0 -0 -0 -0 -0 -0 -0 -0 -0 -0 -0 -0 -0 -0 -0 -0 -0 -0 0 0 0 0 0 0 0 0 0 0 0 0 0 0
0 0 0 0 0 0 0 0 0 0 0 0 0 0 -0 -0 -0 -0 -0 -0 -0 -0 -0 -0 -0 -0 -0 -0 -0 -0 -0 -0 -0 -0 -0 0 0 0 0 0 0 0 0 0 0 0 0 0 0
0 0 0 0 0 0 0 0 0 0 0 0 0 0 0 -0 -0 -0 -0 -0 -0 -0 -0 -0 -0 -0 -0 -0 -0 -0 -0 -0 -0 0 0 0 0 0 0 0 0 0 0 0 0 0 0 0 0
0 0 0 0 0 0 0 0 0 0 0 0 0 0 0 -0 -0 -0 -0 -0 -0 -0 -0 -0 -0 -0 -0 -0 -0 -0 -0 0 0 0 0 0 0 0 0 0 0 0 0 0 0 0 0 0 0
0 0 0 0 0 0 0 0 0 0 0 0 0 0 0 0 0 -0 0 0 0 -0 -0 -0 -0 -0 -0 -0 0 0 0 0 0 0 0 0 0 0 0 0 0 0 0 0 0 0 0 0 0
0 0 0 0 0 0 0 0 0 0 0 0 0 0 0 0 0 -0 -0 0 -0 -0 0 0 0 0 0 0 0 0 0 0 0 0 0 0 0 0 0 0 0 0 0 0 0 0 0 0 0
0 0 0 0 0 0 0 0 0 0 0 0 0 0 0 0 0 0 0 0 -0 0 0 0 0 0 0 0 0 0 0 0 0 0 0 0 0 0 0 0 0 0 0 0 0 0 0 0 0
0 0 0 0 0 0 0 0 0 0 0 0 0 0 0 0 0 0 0 0 0 0 0 0 0 0 0 0 0 0 0 0 0 0 0 0 0 0 0 0 0 0 0 0 0 0 0 0 0
0 0 0 0 0 0 0 0 0 0 0 0 0 0 0 0 0 0 0 0 0 0 0 0 0 0 0 0 0 0 0 0 0 0 0 0 0 0 0 0 0 0 0 0 0 0 0 0 0
0 0 0 0 0 0 0 0 0 0 0 0 0 0 0 0 0 0 0 0 0 0 0 0 0 0 0 0 0 0 0 0 0 0 0 0 0 0 0 0 0 0 0 0 0 0 0 0 0
0 0 0 0 0 0 0 0 0 0 0 0 0 0 0 0 0 0 0 0 0 0 0 0 0 0 0 0 0 0 0 0 0 0 0 0 0 0 0 0 0 0 0 0 0 0 0 0 0
0 0 0 0 0 0 0 0 0 0 0 0 0 0 0 0 0 0 0 0 0 0 0 0 0 0 0 0 0 0 0 0 0 0 0 0 0 0 0 0 0 0 0 0 0 0 0 0 0
0 0 0 0 0 0 0 0 0 0 0 0 0 0 0 0 0 0 0 0 0 0 0 0 0 0 0 0 0 0 0 0 0 0 0 0 0 0 0 0 0 0 0 0 0 0 0 0 0
0 0 0 0 0 0 0 0 0 0 0 0 0 0 0 0 0 0 0 0 0 0 0 0 0 0 0 0 0 0 0 0 0 0 0 0 0 0 0 0 0 0 0 0 0 0 0 0 0
0 0 0 0 0 0 0 0 0 0 0 0 0 0 0 0 0 0 0 0 0 0 0 0 0 0 0 0 0 0 0 0 0 0 0 0 0 0 0 0 0 0 0 0 0 0 0 0 0
0 0 0 0 0 0 0 0 0 0 0 0 0 0 0 0 0 0 0 0 0 0 0 0 0 0 0 0 0 0 0 0 0 0 0 0 0 0 0 0 0 0 0 0 0 0 0 0 0
0 0 0 0 0 0 0 0 0 0 0 0 0 0 0 0 0 0 0 0 0 0 0 0 0 0 0 0 0 0 0 0 0 0 0 0 0 0 0 0 0 0 0 0 0 0 0 0 0
0 0 0 0 0 0 0 0 0 0 0 0 0 0 0 0 0 0 0 0 0 0 0 0 0 0 0 0 0 0 0 0 0 0 0 0 0 0 0 0 0 0 0 0 0 0 0 0 0
0 0 0 0 0 0 0 0 0 0 0 0 0 0 0 0 0 0 0 0 0 0 0 0 0 0 0 0 0 0 0 0 0 0 0 0 0 0 0 0 0 0 0 0 0 0 0 0 0
Wind_Speed_500mb
8 8 9 7 5 2 8 9 2 11 10 5 10 2 5 8 8 7 18 31 40 44 44 38 25 24 21 21 24 25 27 17 17 19 19 21 21 22 24 28 32 32 28 32 31 30 31 35 35
7 7 6 4 5 7 9 8 12 8 9 15 10 6 3 8 7 10 28 36 42 44 38 30 25 23 19 18 18 27 29 21 18 13 19 20 19 20 26 32 31 27 22 28 27 33 36 34 32
7 4 2 1 1 5 6 11 13 12 13 8 7 6 4 5 6 28 18 45 45 41 32 28 26 22 21 22 20 23 31 21 17 14 16 18 18 19 20 24 32 24 23 22 26 32 31 28 26
9 4 8 7 5 5 5 12 13 23 5 3 8 11 7 5 20 14 35 49 46 35 29 29 21 19 22 23 23 24 24 12 12 9 11 14 18 19 20 19 24 31 21 15 29 27 23 18 21
15 6 4 3 4 6 3 10 19 21 11 8 6 9 7 10 25 23 45 48 42 32 33 28 24 21 21 23 23 22 19 14 13 10 12 14 17 17 15 15 21 26 17 22 26 19 16 13 17
5 4 8 11 8 5 5 15 18 12 9 9 7 11 8 20 26 34 47 44 36 38 33 27 24 21 20 20 21 17 16 15 13 13 14 14 15 15 14 13 18 25 17 14 18 14 12 15 16
7 5 6 9 13 9 9 20 17 14 12 9 7 6 10 21 31 40 48 43 36 36 34 29 25 23 21 20 19 18 14 13 12 14 14 14 14 14 12 11 15 23 16 12 12 9 6 11 15
9 3 11 6 15 9 17 16 6 11 9 10 9 6 11 28 34 46 49 43 38 36 34 29 26 23 21 19 18 16 15 12 11 11 12 12 12 12 11 10 12 12 16 13 12 7 6 7 9
11 7 11 13 15 14 20 12 9 8 10 9 11 2 13 39 39 50 51 45 35 36 36 30 28 26 23 21 21 20 18 15 13 10 10 9 8 8 9 8 9 9 9 7 8 6 4 4 6
8 7 12 10 11 14 25 12 19 10 9 9 12 14 21 40 45 56 56 52 48 44 41 35 33 31 27 24 22 20 19 16 13 10 7 6 4 4 5 5 6 6 4 6 7 7 4 5 4
7 7 10 9 8 18 27 15 14 11 9 13 15 22 25 41 43 51 53 53 53 48 45 41 38 36 33 30 27 24 22 19 16 15 12 10 7 5 5 4 4 4 3 3 6 7 5 4 3
9 6 6 8 11 16 24 22 12 16 2 8 14 17 27 41 44 48 48 49 53 52 47 45 42 40 38 35 32 29 26 23 21 19 16 13 9 7 6 5 4 4 3 1 3 4 3 3 3
5 11 11 11 12 14 21 10 5 12 18 14 8 17 26 32 37 38 40 43 48 50 49 48 46 42 40 39 36 34 32 27 25 23 20 18 15 14 13 13 10 9 8 5 5 4 2 1 2
9 15 17 8 8 8 8 7 4 5 8 20 21 14 22 31 36 35 41 43 48 48 47 45 46 44 41 40 38 35 35 33 31 30 27 25 24 22 19 19 17 14 13 11 11 11 7 8 11
21 12 8 6 2 3 5 5 11 4 8 1 15 19 18 27 35 37 35 40 42 44 44 46 42 42 43 40 36 32 30 34 35 35 34 31 30 28 26 25 22 17 17 18 19 19 17 14 19
8 7 12 4 2 1 6 10 3 3 10 11 9 16 22 21 30 35 37 38 41 43 44 43 41 42 42 42 38 35 32 29 29 30 33 34 33 32 33 33 27 27 26 25 26 29 29 35 31
2 13 14 6 2 3 7 6 5 1 6 10 5 4 12 20 26 31 36 40 44 46 48 48 46 45 44 44 43 42 39 39 35 33 30 28 32 34 36 37 32 33 36 36 35 36 39 42 47
19 12 6 10 10 4 8 19 7 6 8 12 10 8 11 16 15 21 29 36 44 48 48 50 52 51 50 49 49 50 51 50 48 44 38 35 35 36 40 43 38 39 43 45 45 47 47 49 48
19 15 13 4 5 6 12 17 17 8 12 17 14 13 13 19 19 25 30 34 37 41 48 51 52 53 55 54 55 58 60 57 55 53 47 45 44 44 46 47 48 47 53 52 57 58 58 57 59
18 17 9 5 5 4 3 18 12 8 4 9 17 9 8 8 7 13 20 28 38 47 47 50 53 53 54 54 55 58 58 59 58 57 55 54 52 51 51 53 54 54 54 59 65 68 70 73 73
5 16 12 8 8 5 4 10 5 7 11 9 10 4 5 8 10 12 10 8 15 30 45 45 43 44 49 50 50 52 53 54 52 54 54 52 51 52 53 55 57 56 58 61 62 65 73 88 90
12 8 15 22 13 5 4 5 5 4 9 12 12 12 15 21 24 25 26 24 20 14 13 25 29 32 36 39 45 48 51 52 49 51 51 51 50 50 53 54 55 56 56 58 58 61 70 69 85
7 14 15 8 8 3 5 7 8 9 8 8 15 20 25 30 34 39 41 39 34 30 26 20 13 14 19 23 28 32 36 33 39 37 41 44 48 48 51 53 54 57 56 56 61 64 67 70 75
26 19 15 8 5 8 8 9 10 13 12 14 17 24 27 32 40 46 48 48 48 45 41 36 28 25 18 12 7 8 13 19 24 26 31 33 38 42 45 47 50 55 56 60 62 70 73 77 78
5 27 7 7 9 9 4 6 5 9 13 29 34 28 24 29 36 42 45 45 43 41 41 40 37 37 33 26 20 13 6 6 12 18 23 29 34 37 41 43 47 49 54 64 70 69 80 76 81
27 14 12 13 11 7 4 13 4 5 9 25 25 26 27 28 34 40 41 41 38 36 34 33 32 32 28 25 22 20 16 13 13 15 17 20 22 26 29 34 40 45 51 58 65 71 76 76 83
14 13 8 14 4 5 9 7 8 11 15 27 29 29 28 31 35 36 36 36 37 35 33 31 30 30 27 25 23 20 19 18 18 19 21 21 24 26 30 33 37 40 44 48 53 60 68 75 81
9 22 7 2 11 10 10 10 12 28 33 31 32 34 28 30 34 36 35 34 34 34 33 30 28 26 25 23 21 20 20 21 22 24 25 27 29 31 33 36 40 44 47 50 55 60 61 67 72
9 11 4 5 4 9 9 11 6 43 46 42 41 36 32 31 34 37 37 35 32 30 27 25 22 18 16 16 18 20 22 23 25 27 29 31 34 36 39 41 44 46 47 48 55 60 65 70 73
4 11 19 11 13 3 1 6 4 31 51 50 43 37 33 35 37 35 33 30 26 22 19 15 13 11 14 16 19 21 23 25 27 30 33 35 37 39 41 44 47 51 53 54 56 59 61 67 73
Wind_Direction_500mb
318 319 336 7 216 209 136 143 359 149 152 83 126 203 35 59 334 7 144 151 150 145 140 144 152 152 139 122 121 121 121 124 109 104 88 77 84 94 94 95 100 92 89 95 103 99 99 95 92
294 309 348 35 242 188 126 137 185 117 105 123 109 115 126 73 74 140 143 151 154 150 147 150 144 150 142 136 133 124 124 123 126 99 66 68 83 94 93 94 92 101 94 94 92 103 98 93 98
259 230 358 23 232 125 117 178 150 122 120 161 133 64 40 69 82 147 160 155 157 158 156 155 141 137 132 126 131 131 126 140 139 89 64 69 89 102 96 101 105 103 85 74 86 99 96 106 105
197 130 58 253 155 91 79 163 154 145 163 160 127 108 82 121 143 157 155 158 160 162 160 153 141 134 128 127 123 121 126 127 117 99 81 84 97 106 102 99 105 112 104 81 95 94 103 112 117
172 124 178 175 150 102 162 152 167 163 145 150 161 121 111 160 157 153 158 160 163 165 158 153 143 140 138 127 123 127 138 140 114 101 89 88 94 102 106 93 91 110 105 100 100 102 105 92 98
148 125 204 187 134 118 159 164 165 172 158 157 158 141 123 154 161 160 164 164 166 165 158 152 145 143 139 135 128 130 138 136 123 103 88 86 91 97 100 85 94 103 122 113 119 110 91 85 82
145 192 170 161 128 138 147 161 173 174 159 170 155 145 134 155 164 167 168 169 168 173 169 165 160 156 152 148 143 143 145 139 123 110 98 91 90 93 103 96 101 128 144 143 112 107 70 58 59
126 176 155 196 158 126 150 161 161 189 159 164 168 178 157 173 167 168 173 175 176 181 184 181 179 170 166 161 159 162 164 158 144 126 103 93 91 96 99 91 87 108 123 115 119 115 87 58 40
155 209 183 166 167 136 154 167 160 176 141 167 188 126 151 170 170 171 175 182 185 190 191 194 195 189 184 178 174 179 181 179 170 145 122 103 92 93 95 95 80 86 131 104 114 127 92 53 28
192 217 183 168 149 145 160 174 154 172 152 194 189 180 171 174 178 179 182 187 194 196 199 201 201 201 199 196 192 190 195 196 189 181 166 141 133 138 139 127 117 114 88 91 95 115 103 69 43
180 200 156 168 151 150 151 159 161 172 196 208 216 190 185 182 184 189 191 196 199 202 208 206 207 208 209 209 208 208 210 210 209 209 206 203 197 186 180 173 157 126 83 68 104 116 110 90 70
169 82 115 145 170 144 156 141 169 202 170 160 205 193 198 192 195 194 199 198 202 209 213 214 213 213 214 217 218 220 222 223 225 226 227 227 231 235 238 238 230 208 217 230 135 126 113 83 55
133 142 100 127 143 121 140 132 160 217 221 217 183 210 206 201 206 204 204 208 211 214 218 222 221 221 222 223 227 228 230 231 235 239 241 243 248 251 250 248 251 243 242 240 220 212 200 27 332
121 131 123 130 123 121 154 148 191 203 187 231 222 208 207 209 208 210 209 211 215 219 221 226 228 225 226 229 231 234 237 238 241 244 248 248 248 249 251 252 253 259 254 250 242 239 246 283 298
133 112 119 75 96 95 152 212 220 181 210 129 207 210 214 215 213 219 220 220 221 221 224 229 226 224 226 228 233 235 237 239 241 245 246 248 250 251 252 252 253 262 266 264 264 252 254 271 285
121 126 174 106 216 11 240 228 178 316 199 187 199 215 222 224 222 222 224 226 227 228 228 232 232 230 230 232 237 241 246 249 247 245 248 249 252 253 255 256 256 252 255 258 262 270 270 268 272
202 188 202 177 190 128 239 264 82 263 92 154 155 227 233 233 236 236 235 234 232 232 235 234 236 236 238 239 242 247 251 255 256 254 255 254 253 254 256 256 257 256 254 256 257 260 265 272 273
179 168 179 194 168 183 199 244 200 261 277 272 290 288 273 261 246 236 235 236 238 238 235 236 238 239 241 243 246 249 253 255 258 259 259 260 260 258 257 258 256 261 261 263 263 261 260 265 267
154 148 157 142 83 200 236 264 265 291 284 286 293 299 282 277 263 247 235 235 236 236 235 235 236 239 242 242 244 246 250 255 260 264 267 265 263 262 261 262 262 260 262 268 265 263 265 264 266
145 149 134 107 64 204 210 268 282 350 12 327 307 307 291 278 263 232 230 231 235 233 231 233 235 238 240 244 246 250 254 258 262 267 270 269 269 269 270 267 266 268 269 267 265 265 265 263 265
152 172 169 150 140 86 282 247 201 83 80 57 34 50 79 111 110 123 144 189 227 232 228 230 233 239 243 244 246 250 251 257 258 261 267 272 273 273 273 272 273 274 276 277 279 279 276 268 265
177 178 137 134 165 182 319 240 155 103 80 64 66 78 93 103 104 106 103 100 98 114 187 221 230 236 238 239 243 247 255 260 264 267 273 275 277 277 279 279 277 275 278 277 279 280 280 281 278
138 140 122 120 101 172 200 249 141 159 130 90 87 95 99 105 103 101 99 97 96 99 104 118 152 198 220 229 236 243 246 254 260 258 265 274 278 280 277 276 278 280 279 279 277 274 277 275 278
141 109 77 78 105 226 179 243 188 181 165 144 126 112 108 108 107 103 100 97 93 92 94 97 102 106 106 117 149 208 241 255 264 265 265 262 261 271 277 276 277 281 282 281 282 280 279 277 278
171 156 128 175 194 234 30 208 317 149 133 152 140 126 116 112 110 108 107 104 101 98 95 95 95 96 93 86 83 79 51 331 306 299 291 285 280 275 269 267 266 269 275 280 282 279 280 279 280
182 193 173 180 190 167 88 222 222 158 130 148 140 133 126 119 114 109 106 105 104 101 100 98 96 96 93 90 81 73 62 46 20 359 344 329 318 309 301 294 287 283 276 269 265 266 270 275 275
174 208 86 104 30 164 194 231 234 163 168 164 154 147 139 129 122 115 111 107 104 102 96 91 88 87 81 75 69 60 48 33 19 7 354 343 329 320 312 305 300 297 294 290 284 278 275 272 272
208 145 145 124 159 214 201 250 208 181 181 174 166 159 147 137 127 120 115 110 107 103 98 94 88 83 76 66 54 42 27 14 2 351 342 337 331 323 317 311 306 301 297 293 290 288 284 281 279
145 182 95 131 193 188 184 228 219 187 180 174 168 162 154 146 136 129 122 116 110 105 102 94 88 76 63 45 31 17 6 1 354 345 338 334 330 326 324 321 318 315 309 303 297 293 290 287 286
325 177 179 190 199 247 4 246 315 187 173 168 164 164 159 154 145 137 131 125 123 118 106 93 72 45 28 14 4 356 352 346 342 340 338 335 334 331 327 323 320 317 316 313 308 303 299 294 291
Wind_Speed_850mb
8 8 9 7 5 2 8 9 2 11 10 5 10 2 5 8 8 7 18 31 40 44 44 38 25 24 21 21 24 25 27 17 17 19 19 21 21 22 24 28 32 32 28 32 31 30 31 35 35
7 7 6 4 5 7 9 8 12 8 9 15 10 6 3 8 7 10 28 36 42 44 38 30 25 23 19 18 18 27 29 21 18 13 19 20 19 20 26 32 31 27 22 28 27 33 36 34 32
7 4 2 1 1 5 6 11 13 12 13 8 7 6 4 5 6 28 18 45 45 41 32 28 26 22 21 22 20 23 31 21 17 14 16 18 18 19 20 24 32 24 23 22 26 32 31 28 26
9 4 8 7 5 5 5 12 13 23 5 3 8 11 7 5 20 14 35 49 46 35 29 29 21 19 22 23 23 24 24 12 12 9 11 14 18 19 20 19 24 31 21 15 29 27 23 18 21
15 6 4 3 4 6 3 10 19 21 11 8 6 9 7 10 25 23 45 48 42 32 33 28 24 21 21 23 23 22 19 14 13 10 12 14 17 17 15 15 21 26 17 22 26 19 16 13 17
5 4 8 11 8 5 5 15 18 12 9 9 7 11 8 20 26 34 47 44 36 38 33 27 24 21 20 20 21 17 16 15 13 13 14 14 15 15 14 13 18 25 17 14 18 14 12 15 16
7 5 6 9 13 9 9 20 17 14 12 9 7 6 10 21 31 40 48 43 36 36 34 29 25 23 21 20 19 18 14 13 12 14 14 14 14 14 12 11 15 23 16 12 12 9 6 11 15
9 3 11 6 15 9 17 16 6 11 9 10 9 6 11 28 34 46 49 43 38 36 34 29 26 23 21 19 18 16 15 12 11 11 12 12 12 12 11 10 12 12 16 13 12 7 6 7 9
11 7 11 13 15 14 20 12 9 8 10 9 11 2 13 39 39 50 51 45 35 36 36 30 28 26 23 21 21 20 18 15 13 10 10 9 8 8 9 8 9 9 9 7 8 6 4 4 6
8 7 12 10 11 14 25 12 19 10 9 9 12 14 21 40 45 56 56 52 48 44 41 35 33 31 27 24 22 20 19 16 13 10 7 6 4 4 5 5 6 6 4 6 7 7 4 5 4
7 7 10 9 8 18 27 15 14 11 9 13 15 22 25 41 43 51 53 53 53 48 45 41 38 36 33 30 27 24 22 19 16 15 12 10 7 5 5 4 4 4 3 3 6 7 5 4 3
9 6 6 8 11 16 24 22 12 16 2 8 14 17 27 41 44 48 48 49 53 52 47 45 42 40 38 35 32 29 26 23 21 19 16 13 9 7 6 5 4 4 3 1 3 4 3 3 3
5 11 11 11 12 14 21 10 5 12 18 14 8 17 26 32 37 38 40 43 48 50 49 48 46 42 40 39 36 34 32 27 25 23 20 18 15 14 13 13 10 9 8 5 5 4 2 1 2
9 15 17 8 8 8 8 7 4 5 8 20 21 14 22 31 36 35 41 43 48 48 47 45 46 44 41 40 38 35 35 33 31 30 27 25 24 22 19 19 17 14 13 11 11 11 7 8 11
21 12 8 6 2 3 5 5 11 4 8 1 15 19 18 27 35 37 35 40 42 44 44 46 42 42 43 40 36 32 30 34 35 35 34 31 30 28 26 25 22 17 17 18 19 19 17 14 19
8 7 12 4 2 1 6 10 3 3 10 11 9 16 22 21 30 35 37 38 41 43 44 43 41 42 42 42 38 35 32 29 29 30 33 34 33 32 33 33 27 27 26 25 26 29 29 35 31
2 13 14 6 2 3 7 6 5 1 6 10 5 4 12 20 26 31 36 40 44 46 48 48 46 45 44 44 43 42 39 39 35 33 30 28 32 34 36 37 32 33 36 36 35 36 39 42 47
19 12 6 10 10 4 8 19 7 6 8 12 10 8 11 16 15 21 29 36 44 48 48 50 52 51 50 49 49 50 51 50 48 44 38 35 35 36 40 43 38 39 43 45 45 47 47 49 48
19 15 13 4 5 6 12 17 17 8 12 17 14 13 13 19 19 25 30 34 37 41 48 51 52 53 55 54 55 58 60 57 55 53 47 45 44 44 46 47 48 47 53 52 57 58 58 57 59
18 17 9 5 5 4 3 18 12 8 4 9 17 9 8 8 7 13 20 28 38 47 47 50 53 53 54 54 55 58 58 59 58 57 55 54 52 51 51 53 54 54 54 59 65 68 70 73 73
5 16 12 8 8 5 4 10 5 7 11 9 10 4 5 8 10 12 10 8 15 30 45 45 43 44 49 50 50 52 53 54 52 54 54 52 51 52 53 55 57 56 58 61 62 65 73 88 90
12 8 15 22 13 5 4 5 5 4 9 12 12 12 15 21 24 25 26 24 20 14 13 25 29 32 36 39 45 48 51 52 49 51 51 51 50 50 53 54 55 56 56 58 58 61 70 69 85
7 14 15 8 8 3 5 7 8 9 8 8 15 20 25 30 34 39 41 39 34 30 26 20 13 14 19 23 28 32 36 33 39 37 41 44 48 48 51 53 54 57 56 56 61 64 67 70 75
26 19 15 8 5 8 8 9 10 13 12 14 17 24 27 32 40 46 48 48 48 45 41 36 28 25 18 12 7 8 13 19 24 26 31 33 38 42 45 47 50 55 56 60 62 70 73 77 78
5 27 7 7 9 9 4 6 5 9 13 29 34 28 24 29 36 42 45 45 43 41 41 40 37 37 33 26 20 13 6 6 12 18 23 29 34 37 41 43 47 49 54 64 70 69 80 76 81
27 14 12 13 11 7 4 13 4 5 9 25 25 26 27 28 34 40 41 41 38 36 34 33 32 32 28 25 22 20 16 13 13 15 17 20 22 26 29 34 40 45 51 58 65 71 76 76 83
14 13 8 14 4 5 9 7 8 11 15 27 29 29 28 31 35 36 36 36 37 35 33 31 30 30 27 25 23 20 19 18 18 19 21 21 24 26 30 33 37 40 44 48 53 60 68 75 81
9 22 7 2 11 10 10 10 12 28 33 31 32 34 28 30 34 36 35 34 34 34 33 30 28 26 25 23 21 20 20 21 22 24 25 27 29 31 33 36 40 44 47 50 55 60 61 67 72
9 11 4 5 4 9 9 11 6 43 46 42 41 36 32 31 34 37 37 35 32 30 27 25 22 18 16 16 18 20 22 23 25 27 29 31 34 36 39 41 44 46 47 48 55 60 65 70 73
4 11 19 11 13 3 1 6 4 31 51 50 43 37 33 35 37 35 33 30 26 22 19 15 13 11 14 16 19 21 23 25 27 30 33 35 37 39 41 44 47 51 53 54 56 59 61 67 73
Wind_Direction_850mb
318 319 336 7 216 209 136 143 359 149 152 83 126 203 35 59 334 7 144 151 150 145 140 144 152 152 139 122 121 121 121 124 109 104 88 77 84 94 94 95 100 92 89 95 103 99 99 95 92
294 309 348 35 242 188 126 137 185 117 105 123 109 115 126 73 74 140 143 151 154 150 147 150 144 150 142 136 133 124 124 123 126 99 66 68 83 94 93 94 92 101 94 94 92 103 98 93 98
259 230 358 23 232 125 117 178 150 122 120 161 133 64 40 69 82 147 160 155 157 158 156 155 141 137 132 126 131 131 126 140 139 89 64 69 89 102 96 101 105 103 85 74 86 99 96 106 105
197 130 58 253 155 91 79 163 154 145 163 160 127 108 82 121 143 157 155 158 160 162 160 153 141 134 128 127 123 121 126 127 117 99 81 84 97 106 102 99 105 112 104 81 95 94 103 112 117
172 124 178 175 150 102 162 152 167 163 145 150 161 121 111 160 157 153 158 160 163 165 158 153 143 140 138 127 123 127 138 140 114 101 89 88 94 102 106 93 91 110 105 100 100 102 105 92 98
148 125 204 187 134 118 159 164 165 172 158 157 158 141 123 154 161 160 164 164 166 165 158 152 145 143 139 135 128 130 138 136 123 103 88 86 91 97 100 85 94 103 122 113 119 110 91 85 82
145 192 170 161 128 138 147 161 173 174 159 170 155 145 134 155 164 167 168 169 168 173 169 165 160 156 152 148 143 143 145 139 123 110 98 91 90 93 103 96 101 128 144 143 112 107 70 58 59
126 176 155 196 158 126 150 161 161 189 159 164 168 178 157 173 167 168 173 175 176 181 184 181 179 170 166 161 159 162 164 158 144 126 103 93 91 96 99 91 87 108 123 115 119 115 87 58 40
155 209 183 166 167 136 154 167 160 176 141 167 188 126 151 170 170 171 175 182 185 190 191 194 195 189 184 178 174 179 181 179 170 145 122 103 92 93 95 95 80 86 131 104 114 127 92 53 28
192 217 183 168 149 145 160 174 154 172 152 194 189 180 171 174 178 179 182 187 194 196 199 201 201 201 199 196 192 190 195 196 189 181 166 141 133 138 139 127 117 114 88 91 95 115 103 69 43
180 200 156 168 151 150 151 159 161 172 196 208 216 190 185 182 184 189 191 196 199 202 208 206 207 208 209 209 208 208 210 210 209 209 206 203 197 186 180 173 157 126 83 68 104 116 110 90 70
169 82 115 145 170 144 156 141 169 202 170 160 205 193 198 192 195 194 199 198 202 209 213 214 213 213 214 217 218 220 222 223 225 226 227 227 231 235 238 238 230 208 217 230 135 126 113 83 55
133 142 100 127 143 121 140 132 160 217 221 217 183 210 206 201 206 204 204 208 211 214 218 222 221 221 222 223 227 228 230 231 235 239 241 243 248 251 250 248 251 243 242 240 220 212 200 27 332
121 131 123 130 123 121 154 148 191 203 187 231 222 208 207 209 208 210 209 211 215 219 221 226 228 225 226 229 231 234 237 238 241 244 248 248 248 249 251 252 253 259 254 250 242 239 246 283 298
133 112 119 75 96 95 152 212 220 181 210 129 207 210 214 215 213 219 220 220 221 221 224 229 226 224 226 228 233 235 237 239 241 245 246 248 250 251 252 252 253 262 266 264 264 252 254 271 285
121 126 174 106 216 11 240 228 178 316 199 187 199 215 222 224 222 222 224 226 227 228 228 232 232 230 230 232 237 241 246 249 247 245 248 249 252 253 255 256 256 252 255 258 262 270 270 268 272
202 188 202 177 190 128 239 264 82 263 92 154 155 227 233 233 236 236 235 234 232 232 235 234 236 236 238 239 242 247 251 255 256 254 255 254 253 254 256 256 257 256 254 256 257 260 265 272 273
179 168 179 194 168 183 199 244 200 261 277 272 290 288 273 261 246 236 235 236 238 238 235 236 238 239 241 243 246 249 253 255 258 259 259 260 260 258 257 258 256 261 261 263 263 261 260 265 267
154 148 157 142 83 200 236 264 265 291 284 286 293 299 282 277 263 247 235 235 236 236 235 235 236 239 242 242 244 246 250 255 260 264 267 265 263 262 261 262 262 260 262 268 265 263 265 264 266
145 149 134 107 64 204 210 268 282 350 12 327 307 307 291 278 263 232 230 231 235 233 231 233 235 238 240 244 246 250 254 258 262 267 270 269 269 269 270 267 266 268 269 267 265 265 265 263 265
152 172 169 150 140 86 282 247 201 83 80 57 34 50 79 111 110 123 144 189 227 232 228 230 233 239 243 244 246 250 251 257 258 261 267 272 273 273 273 272 273 274 276 277 279 279 276 268 265
177 178 137 134 165 182 319 240 155 103 80 64 66 78 93 103 104 106 103 100 98 114 187 221 230 236 238 239 243 247 255 260 264 267 273 275 277 277 279 279 277 275 278 277 279 280 280 281 278
138 140 122 120 101 172 200 249 141 159 130 90 87 95 99 105 103 101 99 97 96 99 104 118 152 198 220 229 236 243 246 254 260 258 265 274 278 280 277 276 278 280 279 279 277 274 277 275 278
141 109 77 78 105 226 179 243 188 181 165 144 126 112 108 108 107 103 100 97 93 92 94 97 102 106 106 117 149 208 241 255 264 265 265 262 261 271 277 276 277 281 282 281 282 280 279 277 278
171 156 128 175 194 234 30 208 317 149 133 152 140 126 116 112 110 108 107 104 101 98 95 95 95 96 93 86 83 79 51 331 306 299 291 285 280 275 269 267 266 269 275 280 282 279 280 279 280
182 193 173 180 190 167 88 222 222 158 130 148 140 133 126 119 114 109 106 105 104 101 100 98 96 96 93 90 81 73 62 46 20 359 344 329 318 309 301 294 287 283 276 269 265 266 270 275 275
174 208 86 104 30 164 194 231 234 163 168 164 154 147 139 129 122 115 111 107 104 102 96 91 88 87 81 75 69 60 48 33 19 7 354 343 329 320 312 305 300 297 294 290 284 278 275 272 272
208 145 145 124 159 214 201 250 208 181 181 174 166 159 147 137 127 120 115 110 107 103 98 94 88 83 76 66 54 42 27 14 2 351 342 337 331 323 317 311 306 301 297 293 290 288 284 281 279
145 182 95 131 193 188 184 228 219 187 180 174 168 162 154 146 136 129 122 116 110 105 102 94 88 76 63 45 31 17 6 1 354 345 338 334 330 326 324 321 318 315 309 303 297 293 290 287 286
325 177 179 190 199 247 4 246 315 187 173 168 164 164 159 154 145 137 131 125 123 118 106 93 72 45 28 14 4 356 352 346 342 340 338 335 334 331 327 323 320 317 316 313 308 303 299 294 291